WetterOnline ( https://www.wetteronline.de )

Wetter aktuell Elsendorf

Aktuelles Wetter: Weihenstephan-Dürnast (478m)

6-stündlich | Neueste Meldungen
Ortszeit Temperatur Wetter
Mo, 06.12. 19:00 -0.2° C bedeckt
Mo, 06.12. 13:00 1.4° C bedeckt
Mo, 06.12. 7:00 -0.7° C Nebel
Mo, 06.12. 1:00 -1.4° C Nebel
So, 05.12. 19:00 0.4° C wolkig
So, 05.12. 13:00 3.1° C bedeckt
So, 05.12. 7:00 1.3° C bedeckt
So, 05.12. 1:00 4.2° C leichter Regen
Ortszeit Temperatur Wetter
Mo, 06.12. 21:30 -1.3° C Nebel
Mo, 06.12. 21:20 -1.3° C Dunst
Mo, 06.12. 21:10 -1.4° C Dunst
Mo, 06.12. 21:00 -1.0° C Nebel
Mo, 06.12. 20:50 -1.0° C Dunst
Mo, 06.12. 20:40 -1.0° C Dunst
Mo, 06.12. 20:30 -1.0° C Nebel
Mo, 06.12. 20:00 -0.7° C wolkig
Mo, 06.12. 19:30 -0.2° C bewölkt
Mo, 06.12. 19:00 -0.2° C bedeckt
Mo, 06.12. 18:30 0.6° C bedeckt
Ortszeit Relative Feuchte Sichtweite
Mo, 06.12. 19:00 96% 10 km
Mo, 06.12. 13:00 94% 10 km
Mo, 06.12. 7:00 100% 2.6 km
Mo, 06.12. 1:00 100% 0.2 km
So, 05.12. 19:00 96% 45 km
So, 05.12. 13:00 81% >70 km
So, 05.12. 7:00 91% 55 km
So, 05.12. 1:00 89% 17 km
Ortszeit Relative Feuchte Sichtweite
Mo, 06.12. 21:30 100% 1.3 km
Mo, 06.12. 21:20 100% -
Mo, 06.12. 21:10 100% -
Mo, 06.12. 21:00 100% 3.5 km
Mo, 06.12. 20:50 100% -
Mo, 06.12. 20:40 100% -
Mo, 06.12. 20:30 100% 2.3 km
Mo, 06.12. 20:00 96% 12 km
Mo, 06.12. 19:30 99% 9 km
Mo, 06.12. 19:00 96% 10 km
Mo, 06.12. 18:30 97% 9 km
Ortszeit Niederschlagsmenge Niederschlagsart
Mo, 06.12. 19:00 0.1 l/m2 in 12 Std. Regen
Mo, 06.12. 13:00 0.0 l/m2 in 6 Std. -
Mo, 06.12. 7:00 0.1 l/m2 in 12 Std. Schnee
Mo, 06.12. 1:00 0.0 l/m2 in 6 Std. -
So, 05.12. 19:00 0.0 l/m2 in 12 Std. -
So, 05.12. 13:00 0.0 l/m2 in 6 Std. -
So, 05.12. 7:00 0.8 l/m2 in 12 Std. Regen
So, 05.12. 1:00 0.4 l/m2 in 6 Std. Regen
Ortszeit Niederschlagsmenge Niederschlagsart
Mo, 06.12. 21:30 0.0 l/m2 in 1 Std. -
Mo, 06.12. 21:20 keine Meldung -
Mo, 06.12. 21:10 keine Meldung -
Mo, 06.12. 21:00 0.0 l/m2 in 1 Std. -
Mo, 06.12. 20:50 keine Meldung -
Mo, 06.12. 20:40 keine Meldung -
Mo, 06.12. 20:30 0.0 l/m2 in 1 Std. -
Mo, 06.12. 20:00 0.0 l/m2 in 1 Std. -
Mo, 06.12. 19:30 0.0 l/m2 in 1 Std. -
Mo, 06.12. 19:00 0.0 l/m2 in 1 Std. Regen
Mo, 06.12. 18:30 0.0 l/m2 in 1 Std. -
Ortszeit Stärke Spitze Richtung
km/h Bft. km/h Grad Sektor
Mo, 06.12. 19:00 7 2 18 260° W
Mo, 06.12. 13:00 7 2 18 280° W
Mo, 06.12. 7:00 7 2 11 300° NW
Mo, 06.12. 1:00 0 0 7 - -
So, 05.12. 19:00 7 2 14 130° SO
So, 05.12. 13:00 7 2 18 240° SW
So, 05.12. 7:00 11 2 54 240° SW
So, 05.12. 1:00 31 5 52 270° W
Ortszeit Stärke Spitze Richtung
km/h Bft. km/h Grad Sektor
Mo, 06.12. 21:30 2 1 2 270° W
Mo, 06.12. 21:20 2 1 - 270° W
Mo, 06.12. 21:10 0 0 - 300° NW
Mo, 06.12. 21:00 0 0 4 - -
Mo, 06.12. 20:50 2 1 - 90° O
Mo, 06.12. 20:40 0 0 - 80° O
Mo, 06.12. 20:30 2 1 6 60° NO
Mo, 06.12. 20:00 2 1 9 230° SW
Mo, 06.12. 19:30 0 0 11 - -
Mo, 06.12. 19:00 7 2 7 260° W
Mo, 06.12. 18:30 4 1 7 240° SW
Ortszeit Untergrenze Bedeckung Gattung
total tief tief mittel hoch
Mo, 06.12. 19:00 1800 m 8/8 8/8 - - -
Mo, 06.12. 13:00 150 m 8/8 8/8 - - -
Mo, 06.12. 7:00 60 m 8/8 8/8 - - -
Mo, 06.12. 1:00 <30 m 8/8 0/8 - - -
So, 05.12. 19:00 540 m 8/8 1/8 - - -
So, 05.12. 13:00 450 m 8/8 8/8 - - -
So, 05.12. 7:00 3300 m 8/8 8/8 - - -
So, 05.12. 1:00 450 m 8/8 8/8 - - -
Ortszeit Bedeckungsgrad in Achtel und Wolkenuntergrenze
Mo, 06.12. 21:30 2(1380m) 6(1800m) 7(6900m)
Mo, 06.12. 21:20 2(1380m) 6(1800m) 7(6900m)
Mo, 06.12. 21:10 6(1470m) 7(1800m)
Mo, 06.12. 21:00 1(1050m) 7(1500m) 7(1800m)
Mo, 06.12. 20:50 1(1050m) 7(1500m) 7(1800m)
Mo, 06.12. 20:40 2(1050m) 7(1500m) 7(1800m)
Mo, 06.12. 20:30 6(1500m) 7(1800m)
Mo, 06.12. 20:00 5(1800m)
Mo, 06.12. 19:30 7(1800m)
Mo, 06.12. 19:00 8(1800m)
Mo, 06.12. 18:30 1(300m) 8(1800m)
Ortszeit Luftdruck NN (hPa) Tendenz (hPa in 3 Std.)
Mo, 06.12. 19:00 1017 + 0,2
Mo, 06.12. 13:00 1016 + 0,4
Mo, 06.12. 7:00 1014 + 2,0
Mo, 06.12. 1:00 1011 + 1,3
So, 05.12. 19:00 1009 + 1,4
So, 05.12. 13:00 1006 0,0
So, 05.12. 7:00 1006 + 0,1
So, 05.12. 1:00 1004 + 2,9
Ortszeit Luftdruck NN (hPa) Tendenz (hPa in 3 Std.)
Mo, 06.12. 21:30 1016 - 1,2
Mo, 06.12. 21:20 1016 keine Meldung
Mo, 06.12. 21:10 1016 keine Meldung
Mo, 06.12. 21:00 1016 - 1,3
Mo, 06.12. 20:50 1016 keine Meldung
Mo, 06.12. 20:40 1016 keine Meldung
Mo, 06.12. 20:30 1016 - 0,9
Mo, 06.12. 20:00 1016 - 0,6
Mo, 06.12. 19:30 1016 - 0,2
Mo, 06.12. 19:00 1017 + 0,2
Mo, 06.12. 18:30 1017 + 0,3
Ortszeit Schneehöhe (cm)
Mo, 06.12. 19:00 0
Mo, 06.12. 13:00 0
Mo, 06.12. 7:00 0
Mo, 06.12. 1:00 0
So, 05.12. 19:00 0
So, 05.12. 13:00 0
So, 05.12. 7:00 0
So, 05.12. 1:00 0
Ortszeit Schneehöhe (cm)
Mo, 06.12. 21:30 0
Mo, 06.12. 21:20 0
Mo, 06.12. 21:10 0
Mo, 06.12. 21:00 0
Mo, 06.12. 20:50 0
Mo, 06.12. 20:40 0
Mo, 06.12. 20:30 0
Mo, 06.12. 20:00 0
Mo, 06.12. 19:30 0
Mo, 06.12. 19:00 0
Mo, 06.12. 18:30 0
Link zu dieser Seite / Seite empfehlen

Das Wetter in ...